FLOCK 2E'-14 (41762 NORAD) Tracking and Keplerian Element Data

This shows tracking and keplerian element data for the satellite.

Feedback or suggestion? Click here.




ElementValue
Catalog41762
NameFLOCK 2E'-14
Epoch Orbit12065
Epoch Day297.6581386
Epoch Year2018
RAAN21.6904
Inclination51.6102
Eccentricity0.0009509
Argument of Perigee2.2053
Mean Anonmoly357.9008
Mean Motion16.27579428
Decay Rate0.04633274
L11 41762U 98067KJ 18297.65813860 .04633274 12113-4 12191-2 0 9991
L22 41762 51.6102 21.6904 0009509 2.2053 357.9008 16.27579428120651

Live tracking and technical data element details for FLOCK 2E'-14 (NORAD 41762). FLOCK 2E'-14 can be tracked NOW for your location showing map with azimuth and elevation plus other details from your city location.

Track the satellite on the map from your city or location and see movement details for azimuth, elevation, latitude, longitude, range, height, and movement on the map or in text.







IsCatalogInMostPopularTable: catalog: 41762, numindb: 118
Update: records affected: 1



GetName: 41762 FLOCK 2E'-14

Hit Count: updated at: Fri, 16 Nov 2018 11:51:19 GMT